C/2019 J3 ( ATLAS )

Japanese version
Home page
Updated on September 17, 2019

---------------------------------------------------------------------

* Profile

Discovery Date May 14, 2019
Magnitude 18.7 mag
Discoverer Asteroid Terrestrial-Impact Last Alert System (ATLAS) search program

* Pictures

* Orbital Elements

Epoch 2019 July 16.0 TT = JDT 2458680.5
T 2019 Aug. 1.90569 TT                                  Williams
q   2.3734128            (2000.0)            P               Q
z  -0.0000829      Peri.   16.55743     -0.17984687     -0.63659002
 +/-0.0000476      Node   270.51702     -0.96597742     -0.02974993
e   1.0001967      Incl.  131.41228     -0.18585675     +0.77062837
From 197 observations 2019 May 14-Aug. 21, mean residual 0".5.

* Magnitudes Graph

        m1 = 12.5 + 5 log d + 10.0 log r

---------------------------------------------------------------------

The orbital elements are published on M.P.E.C. 2019-Q135.
The magnitudes graphs are made with Comet for Windows.

---------------------------------------------------------------------

Copyright(C) Seiichi Yoshida (comet@aerith.net). All rights reserved.